{"data":{"norad_id":49289,"intl_designator":"2021-090L","name":"ONEWEB-0363","alt_names":[],"object_type":"PAYLOAD","status":"ACTIVE","operator":null,"country":"UK","launch_date":"2021-10-14","launch_site_code":"VOSTO","launch_vehicle":null,"mission":null,"orbit_class":"UNKNOWN","rcs_meters":null,"size_class":null,"mass_kg":null,"dimensions":null,"purposes":["comms"],"wikipedia_slug":null,"has_3d_model":false,"image_url":null,"decayed_at":null,"tle_current":{"epoch":"2026-09-19T22:27:29.561184Z","epoch_age_seconds":74538,"freshness":"FRESH","line1":"1 49289U 21090L   26262.93575881  .00000129  00000+0  28504-3 0  9991","line2":"2 49289  87.9142 255.5371 0002284  91.2266 268.9129 13.20771464242814","mean_motion":13.20771464,"eccentricity":0.0002284,"inclination_deg":87.9142,"raan_deg":255.5371,"arg_perigee_deg":91.2266,"mean_anomaly_deg":268.9129,"bstar":0.00028504,"rev_number":24281,"period_min":109.02718897628,"perigee_km":1180.0480203962,"apogee_km":1183.5013880627,"semimajor_km":7559.9117042294,"source":"CELESTRAK","updated_at":"2026-09-20T09:00:44.670663Z"}}}